DW7104 Weather Reports


Display with metric or nautical units.
time (UTC)temp
F
wind
direction
speed
MPH
gust
MPH
rain 1hr
in
rain 24hr
in
rain mn
in
humidity
%
barometer
mb
20260506123508 61 51 0.0 0.0 0.00 0.00 0.00 88 1009.7
20260506123018 61 40 0.0 0.0 0.00 0.00 0.00 88 1009.8
20260506122531 61 63 0.0 0.0 0.00 0.00 0.00 88 1009.9
20260506122043 61 50 0.0 0.0 0.00 0.00 0.00 89 1010.0
20260506121558 60 190 0.0 0.0 0.00 0.00 0.00 89 1010.2
20260506121013 60 46 0.0 0.0 0.00 0.00 0.00 90 1010.0
20260506120532 59 18 0.0 0.0 0.00 0.00 0.00 90 1010.1
20260506120043 59 20 0.0 0.0 0.00 0.01 0.00 90 1010.0
20260506115504 59 47 0.0 0.0 0.00 0.01 0.00 90 1009.9
20260506115017 59 4 0.0 0.0 0.00 0.01 0.00 91 1009.8
20260506114536 59 62 0.0 0.0 0.00 0.01 0.00 91 1009.8
20260506114047 59 46 0.0 0.0 0.00 0.01 0.00 91 1009.9
20260506113506 58 71 0.0 0.0 0.00 0.01 0.00 91 1009.8
20260506113032 58 41 0.0 0.0 0.00 0.01 0.00 91 1009.7
20260506112534 58 56 0.0 0.0 0.00 0.01 0.00 91 1009.9
20260506112045 58 53 0.0 0.0 0.00 0.01 0.00 92 1009.9
20260506111559 58 108 0.0 0.0 0.00 0.01 0.00 92 1009.9
20260506111501 58 62 0.0 0.0 0.00 0.01 0.00 92 1009.9
20260506111013 58 72 0.0 0.0 0.00 0.01 0.00 92 1009.9
20260506110527 57 183 0.0 0.0 0.00 0.01 0.00 92 1009.9
20260506110038 57 50 0.0 0.0 0.00 0.01 0.00 92 1010.0
20260506105554 57 74 0.0 0.0 0.00 0.01 0.00 92 1010.1
20260506105051 57 105 0.0 0.0 0.00 0.01 0.00 93 1010.0
20260506104503 57 4 0.0 0.0 0.00 0.01 0.00 93 1010.0
20260506104018 56 28 0.0 0.0 0.00 0.01 0.00 93 1009.9
20260506103531 56 18 0.0 0.0 0.00 0.01 0.00 93 1009.9
20260506103054 56 82 0.0 0.0 0.00 0.01 0.00 93 1009.8
20260506102559 56 38 0.0 0.0 0.00 0.01 0.00 93 1009.9
20260506102502 56 126 0.0 0.0 0.00 0.01 0.00 93 1009.9
20260506102018 56 72 0.0 0.0 0.00 0.01 0.00 93 1009.9
20260506101527 56 52 0.0 0.0 0.00 0.01 0.00 93 1009.9
20260506101041 56 52 0.0 0.0 0.00 0.01 0.00 93 1009.9
20260506100553 56 71 0.0 0.0 0.00 0.01 0.00 93 1009.9
20260506100010 56 74 0.0 0.0 0.00 0.01 0.00 93 1009.8
20260506095519 56 45 0.0 0.0 0.00 0.01 0.00 92 1009.8
20260506095036 56 84 0.0 0.0 0.00 0.01 0.00 92 1009.8
20260506094548 56 31 0.0 0.0 0.00 0.01 0.00 92 1009.9
20260506094004 56 52 0.0 0.0 0.00 0.01 0.00 92 1009.7
20260506093514 56 52 0.0 0.0 0.00 0.01 0.00 92 1009.7
20260506093027 56 52 0.0 0.0 0.00 0.01 0.00 92 1009.7
20260506092538 56 42 0.0 0.0 0.00 0.01 0.00 92 1009.7
20260506092051 56 42 0.0 0.0 0.00 0.01 0.00 92 1009.8
20260506091508 57 41 0.0 0.0 0.00 0.01 0.00 92 1009.8
20260506091021 57 48 0.0 0.0 0.00 0.01 0.00 92 1009.8
20260506090537 57 62 0.0 0.0 0.00 0.01 0.00 92 1010.0
20260506090056 57 60 0.0 0.0 0.00 0.01 0.00 91 1009.8
20260506085559 57 54 0.0 0.0 0.00 0.01 0.00 91 1009.9
20260506085505 57 55 0.0 0.0 0.00 0.01 0.00 91 1009.9
20260506085015 57 49 0.0 0.0 0.00 0.01 0.00 91 1009.9
20260506084531 57 34 0.0 0.0 0.00 0.01 0.00 91 1010.0
20260506084041 57 52 0.0 0.0 0.00 0.01 0.00 91 1010.0
20260506083556 57 335 0.0 0.0 0.00 0.01 0.00 91 1010.0
20260506083007 57 60 0.0 0.0 0.00 0.01 0.00 91 1010.0
20260506082521 57 60 0.0 0.0 0.00 0.01 0.00 91 1010.0
20260506082033 57 102 0.0 0.0 0.00 0.01 0.00 91 1010.1
20260506081547 57 49 0.0 0.0 0.00 0.01 0.00 90 1010.0
20260506081057 57 62 0.0 0.0 0.00 0.01 0.00 90 1009.9
20260506080513 57 91 0.0 0.0 0.00 0.01 0.00 90 1009.8
20260506073041 57 67 0.0 0.0 0.00 0.01 0.00 90 1010.2
20260506072555 57 74 0.0 0.0 0.00 0.01 0.00 90 1010.2
20260506072010 57 48 0.0 0.0 0.00 0.01 0.00 89 1010.1
20260506071524 57 185 0.0 0.0 0.00 0.01 0.00 89 1010.2
20260506071035 58 32 0.0 0.0 0.00 0.01 0.00 89 1010.1
20260506070549 58 45 0.0 0.0 0.00 0.01 0.00 89 1010.2
20260506062051 59 67 0.0 0.0 0.00 0.01 0.00 85 1010.0
20260506061504 60 60 0.0 0.0 0.00 0.01 0.00 85 1010.0
20260506061016 60 62 0.0 0.0 0.00 0.01 0.00 84 1010.0
20260506060527 60 51 0.0 0.0 0.00 0.01 0.00 84 1010.0
20260506051053 61 63 0.0 0.0 0.00 0.01 0.00 83 1010.4
20260506050511 61 64 0.0 0.0 0.00 0.01 0.00 83 1010.4
20260506045047 61 63 0.0 0.0 0.00 0.01 0.00 81 1010.5
20260506044503 61 132 0.0 0.0 0.00 0.01 0.00 81 1010.5
20260506044014 62 50 0.0 0.0 0.00 0.01 0.00 80 1010.5
20260506043532 62 58 0.0 0.0 0.00 0.01 0.00 80 1010.5
20260506043037 62 44 0.0 0.0 0.00 0.01 0.00 80 1010.5
20260506042553 62 70 0.0 0.0 0.00 0.01 0.00 79 1010.5
20260506042004 62 35 0.0 0.0 0.00 0.01 0.00 79 1010.5
20260506041519 62 75 0.0 0.0 0.00 0.01 0.00 79 1010.5
20260506041032 62 63 0.0 0.0 0.00 0.01 0.00 78 1010.4
20260506040545 62 68 0.0 0.0 0.00 0.01 0.00 78 1010.5
20260506040056 62 67 0.0 0.0 0.00 0.01 0.00 78 1010.5
20260506035514 62 76 0.0 0.0 0.00 0.01 0.01 78 1010.5
20260506035021 62 40 0.0 0.0 0.00 0.01 0.01 77 1010.5
20260506034552 62 59 0.0 0.0 0.00 0.01 0.01 77 1010.4
20260506034049 62 62 0.0 0.0 0.00 0.01 0.01 77 1010.5
20260506033503 62 188 0.0 0.0 0.00 0.01 0.01 77 1010.5
20260506033016 62 66 0.0 0.0 0.00 0.01 0.01 77 1010.5
20260506032531 62 52 0.0 0.0 0.00 0.01 0.01 77 1010.5
20260506032040 62 96 0.0 0.0 0.00 0.01 0.01 76 1010.4
20260506031601 62 82 0.0 0.0 0.00 0.01 0.01 76 1010.4
20260506031006 62 79 0.0 0.0 0.00 0.01 0.01 76 1010.4
20260506030519 63 73 0.0 0.0 0.00 0.01 0.01 76 1010.5
20260506030039 63 50 0.0 0.0 0.00 0.01 0.01 75 1010.5
20260506025549 63 105 0.0 0.0 0.00 0.01 0.01 75 1010.5
20260506025100 63 59 0.0 0.0 0.00 0.01 0.01 75 1010.5
20260506024535 63 89 0.0 0.0 0.00 0.01 0.01 74 1010.6
20260506024027 63 74 0.0 0.0 0.00 0.01 0.01 74 1010.5
20260506023543 63 87 0.0 0.0 0.00 0.01 0.01 74 1010.6
20260506023054 63 45 0.0 0.0 0.00 0.01 0.01 74 1010.4
20260506022513 63 74 0.0 0.0 0.00 0.01 0.01 74 1010.4
20260506022024 63 83 0.0 0.0 0.00 0.01 0.01 74 1010.5
20260506021538 63 59 0.0 0.0 0.00 0.01 0.01 74 1010.5
20260506021047 63 67 0.0 0.0 0.00 0.01 0.01 74 1010.5
20260506020503 63 48 0.0 0.0 0.00 0.01 0.01 74 1010.5
20260506020018 63 60 0.0 0.0 0.00 0.01 0.01 74 1010.4
20260506015528 63 53 0.0 0.0 0.00 0.01 0.01 74 1010.3
20260506015043 63 181 0.0 0.0 0.00 0.01 0.01 73 1010.3
20260506014550 63 63 0.0 0.0 0.00 0.01 0.01 73 1010.3
20260506014005 63 58 0.0 0.0 0.00 0.01 0.01 73 1010.1
20260506013517 63 49 0.0 0.0 0.00 0.01 0.01 73 1010.1
20260506013040 63 53 0.0 0.0 0.00 0.01 0.01 73 1010.1
20260506012546 63 53 0.0 0.0 0.00 0.01 0.01 72 1010.0
20260506012059 63 53 0.0 0.0 0.00 0.01 0.01 72 1010.0
20260506012004 64 82 0.0 0.0 0.00 0.01 0.01 72 1010.0
20260506011514 64 101 0.0 0.0 0.00 0.01 0.01 72 1009.9
20260506011029 64 70 0.0 0.0 0.00 0.01 0.01 71 1009.8
20260506010540 64 63 0.0 0.0 0.00 0.01 0.01 71 1009.8
20260506010057 64 79 0.0 0.0 0.00 0.01 0.01 71 1009.7
20260506005506 64 69 0.0 0.0 0.00 0.06 0.01 71 1009.7
20260506005019 64 66 0.0 0.0 0.00 0.06 0.01 70 1009.6
20260506004532 64 67 0.0 0.0 0.00 0.06 0.01 70 1009.6
20260506004044 64 66 0.0 0.0 0.00 0.06 0.01 69 1009.5
20260506003554 65 60 0.0 0.0 0.00 0.06 0.01 69 1009.4
20260506003010 65 55 0.0 0.0 0.00 0.06 0.01 68 1009.3
20260506002521 65 65 0.0 0.0 0.00 0.06 0.01 67 1009.2
20260506002037 65 87 0.0 0.0 0.00 0.06 0.01 67 1009.2
20260506001547 65 32 0.0 0.0 0.00 0.06 0.01 67 1009.2
20260506001100 65 55 0.0 0.0 0.00 0.06 0.01 67 1009.1
20260506001002 65 53 0.0 0.0 0.00 0.06 0.01 66 1009.0
20260506000519 66 51 0.0 0.0 0.00 0.06 0.01 66 1009.0
20260506000026 66 75 0.0 0.0 0.00 0.06 0.01 65 1008.9
20260505235542 66 56 0.0 0.0 0.00 0.06 0.01 65 1008.9
20260505235052 66 53 0.0 0.0 0.00 0.06 0.01 65 1008.8
20260505234512 67 58 0.0 0.0 0.00 0.06 0.01 64 1008.7
20260505234021 67 65 0.0 0.0 0.00 0.06 0.01 64 1008.7
20260505233537 67 71 0.0 0.0 0.00 0.06 0.01 64 1008.6
20260505233050 67 41 0.0 0.0 0.00 0.06 0.01 63 1008.7
20260505232505 68 37 0.0 0.0 0.00 0.06 0.01 63 1008.6
20260505232015 68 73 0.0 0.0 0.00 0.06 0.01 63 1008.5
20260505231532 69 69 0.0 0.0 0.00 0.06 0.01 62 1008.4
20260505231043 69 185 0.0 0.0 0.00 0.06 0.01 62 1008.4
20260505230556 69 153 0.0 0.0 0.00 0.06 0.01 62 1008.3
20260505230020 70 83 0.0 0.0 0.00 0.06 0.01 62 1008.2
20260505225524 70 41 0.0 0.0 0.00 0.06 0.01 61 1008.1
20260505225038 70 190 0.0 0.0 0.00 0.06 0.01 61 1008.1
20260505224550 70 192 0.0 0.0 0.00 0.06 0.01 61 1008.1
20260505224100 71 117 0.0 0.0 0.00 0.06 0.01 61 1008.0
20260505224004 71 107 0.0 3.0 0.00 0.06 0.01 61 1007.9
20260505223509 71 60 0.0 3.0 0.00 0.06 0.01 61 1008.1
20260505223019 71 193 0.0 0.0 0.00 0.06 0.01 60 1008.3
20260505222534 71 107 0.0 0.0 0.00 0.06 0.01 60 1008.3
20260505222044 71 183 0.0 0.0 0.00 0.06 0.01 61 1008.3
20260505221504 71 177 0.0 0.0 0.00 0.06 0.01 60 1008.4
20260505221023 72 64 0.0 0.0 0.00 0.06 0.01 60 1008.4
20260505220531 72 234 0.0 3.0 0.00 0.06 0.01 60 1008.2
20260505220046 72 206 0.0 3.0 0.00 0.06 0.01 60 1008.2
20260505215556 72 170 0.0 2.0 0.00 0.06 0.01 60 1008.3
20260505215012 72 67 0.0 3.0 0.00 0.06 0.01 60 1008.1
20260505214524 72 171 0.0 5.0 0.00 0.06 0.01 59 1008.1
20260505214036 72 228 0.0 5.0 0.00 0.06 0.01 60 1008.1
20260505213548 73 185 0.0 3.0 0.00 0.06 0.01 59 1008.1
20260505213004 73 29 0.0 3.0 0.00 0.06 0.01 59 1008.0
20260505212519 73 46 0.0 3.0 0.00 0.06 0.01 58 1008.0
20260505212030 74 63 0.0 2.0 0.00 0.06 0.01 58 1008.0
20260505211542 74 202 0.0 2.0 0.00 0.06 0.01 58 1007.9
20260505211056 74 65 0.0 2.0 0.00 0.06 0.01 58 1007.8
20260505210513 74 69 0.0 2.0 0.00 0.06 0.01 58 1007.8
20260505210026 74 41 0.0 1.0 0.00 0.06 0.01 58 1007.9
20260505205536 74 46 0.0 3.0 0.00 0.06 0.01 58 1008.0
20260505205050 74 154 0.0 2.0 0.00 0.06 0.01 59 1008.0
20260505204608 74 308 0.0 4.0 0.00 0.06 0.01 59 1008.0
20260505204502 73 271 0.0 4.0 0.00 0.06 0.01 59 1007.9
20260505204020 74 59 1.0 6.0 0.00 0.06 0.01 58 1008.0
20260505203527 74 33 1.0 6.0 0.00 0.06 0.01 57 1008.0
20260505203047 74 257 0.0 2.0 0.00 0.06 0.01 58 1008.0
20260505202552 74 314 0.0 2.0 0.00 0.06 0.01 59 1008.0
20260505202008 74 107 0.0 4.0 0.00 0.06 0.01 58 1008.1
20260505201522 74 57 0.0 4.0 0.00 0.06 0.01 58 1008.1
20260505201031 74 39 0.0 4.0 0.00 0.06 0.01 58 1008.2
20260505200547 74 79 0.0 4.0 0.00 0.06 0.01 59 1008.1
20260505200059 74 210 1.0 4.0 0.00 0.06 0.01 58 1008.1
20260505195512 74 105 0.0 4.0 0.00 0.06 0.01 58 1008.3
20260505195024 75 56 0.0 5.0 0.00 0.06 0.01 58 1008.2
20260505194543 74 330 0.0 9.0 0.00 0.06 0.01 58 1008.3
20260505194055 74 190 0.0 4.0 0.00 0.06 0.01 57 1008.3
20260505193509 75 235 0.0 4.0 0.00 0.06 0.01 56 1008.2
20260505193018 75 206 0.0 4.0 0.00 0.06 0.01 57 1008.3
20260505192534 76 85 1.0 7.0 0.00 0.06 0.01 56 1008.4
20260505192043 76 49 0.0 3.0 0.00 0.06 0.01 58 1008.5
20260505191504 76 92 0.0 3.0 0.00 0.06 0.01 57 1008.6
20260505191019 76 281 0.0 3.0 0.00 0.06 0.01 57 1008.7
20260505190535 76 224 0.0 3.0 0.00 0.06 0.01 57 1008.7
20260505190045 76 349 0.0 4.0 0.00 0.06 0.01 57 1008.8
20260505185601 76 248 0.0 4.0 0.00 0.06 0.01 57 1008.9
20260505185014 76 326 0.0 5.0 0.00 0.06 0.01 56 1008.9
20260505184530 76 301 0.0 6.0 0.00 0.06 0.01 56 1008.9
20260505184042 76 202 0.0 6.0 0.00 0.06 0.01 56 1009.0
20260505183559 76 183 1.0 6.0 0.00 0.06 0.01 54 1009.1
20260505183504 76 97 0.0 6.0 0.00 0.06 0.01 55 1009.0
20260505183020 76 277 0.0 9.0 0.00 0.06 0.01 55 1009.0
20260505182527 76 178 2.0 9.0 0.00 0.06 0.01 54 1008.9
20260505182044 76 51 1.0 7.0 0.00 0.06 0.01 55 1008.9
20260505181554 77 192 0.0 8.0 0.00 0.06 0.01 55 1008.9
20260505181010 77 185 1.0 6.0 0.00 0.06 0.01 54 1008.9
20260505180521 77 271 1.0 7.0 0.00 0.06 0.01 54 1008.9
20260505180033 77 220 0.0 5.0 0.00 0.06 0.01 54 1009.0
20260505175545 78 51 0.0 4.0 0.00 0.06 0.01 53 1008.9
20260505175004 77 252 0.0 2.0 0.00 0.06 0.01 54 1008.9
20260505174516 77 213 0.0 2.0 0.00 0.06 0.01 54 1009.0
20260505174032 77 214 0.0 5.0 0.00 0.06 0.01 54 1009.0
20260505173543 77 10 1.0 6.0 0.00 0.06 0.01 54 1009.1
20260505173059 77 73 0.0 5.0 0.00 0.06 0.01 55 1009.2
20260505172509 77 192 1.0 5.0 0.00 0.06 0.01 54 1009.2
20260505172030 77 51 0.0 7.0 0.00 0.06 0.01 55 1009.3
20260505171542 77 105 0.0 4.0 0.00 0.06 0.01 54 1009.2
20260505171058 77 210 0.0 3.0 0.00 0.06 0.01 55 1009.2
20260505170509 78 27 0.0 3.0 0.00 0.06 0.01 53 1009.2
20260505170028 77 31 0.0 2.0 0.00 0.06 0.01 55 1009.3
20260505165533 77 349 0.0 6.0 0.00 0.06 0.01 54 1009.2
20260505165047 77 295 1.0 6.0 0.00 0.06 0.01 54 1009.3
20260505164603 77 57 0.0 4.0 0.00 0.06 0.01 56 1009.3
20260505164508 77 51 0.0 4.0 0.00 0.06 0.01 56 1009.4
20260505164016 77 291 0.0 5.0 0.00 0.06 0.01 55 1009.6
20260505163534 77 74 0.0 5.0 0.00 0.06 0.01 54 1009.6
20260505163051 77 315 0.0 3.0 0.00 0.06 0.01 55 1009.7
20260505162604 76 252 0.0 3.0 0.00 0.06 0.01 55 1009.8
20260505162501 76 330 0.0 4.0 0.00 0.06 0.01 56 1009.8
20260505162012 76 14 0.0 5.0 0.00 0.06 0.01 55 1009.8
20260505161525 76 17 0.0 5.0 0.00 0.06 0.01 56 1009.9
20260505161038 76 185 0.0 6.0 0.00 0.06 0.01 55 1010.0
20260505160555 75 229 1.0 6.0 0.00 0.06 0.01 56 1010.0
20260505153046 74 349 0.0 2.0 0.00 0.06 0.01 58 1010.4
20260505152544 74 322 0.0 3.0 0.00 0.06 0.01 58 1010.6
20260505152054 73 157 0.0 5.0 0.00 0.06 0.01 60 1010.6
20260505151512 72 31 0.0 5.0 0.00 0.06 0.01 61 1010.7
20260505151019 72 185 0.0 3.0 0.00 0.06 0.01 62 1010.8
20260505150533 71 35 0.0 4.0 0.00 0.06 0.01 61 1010.8
20260505140511 65 35 0.0 2.0 0.00 0.06 0.01 73 1010.5
20260505125015 57 51 0.0 0.0 0.01 0.10 0.01 91 1010.5
20260505124530 57 50 0.0 1.0 0.01 0.10 0.01 91 1010.5
20260505124040 56 50 0.0 1.0 0.01 0.10 0.01 90 1010.8